Regional Weather Roundup
Issued by NWS State College, PA

Home | Current Version | Previous Version | Graphics & Text | Print | Product List | Glossary On
Versions: 1 2 3 4 5 6 7 8 9 10 11 12 13 14 15 16 17 18 19 20 21 22 23 24 25 26 27 28 29 30 31 32 33 34 35 36 37 38 39 40 41 42 43 44 45 46 47 48 49 50
000
ASUS41 KCTP 050403
RWRCTP

REGIONAL WEATHER ROUNDUP
NATIONAL WEATHER SERVICE STATE COLLEGE PA
1200 AM EDT WED AUG 05 2015

Note: "fair" indicates few or no clouds below 12,000 feet with no
significant weather and/or obstructions to visibility.

* = STATION THAT DOES NOT REPORT PRECIPITATION /E.G. RAIN...SNOW...ETC/
    THUNDER OR FOG.

PAZ002>004-007>009-013>016-020>023-029>032-050500-
WESTERN PENNSYLVANIA

CITY           SKY/WX    TMP DP  RH WIND       PRES   REMARKS
ERIE           MOCLDY    68  60  75 CALM      29.97R
MEADVILLE      MOCLDY    68  55  63 CALM      30.00R
FRANKLIN*      PTCLDY    61  52  72 W3        30.02S
NEW CASTLE     FAIR      63  57  80 CALM      30.01R
BEAVER COUNTY  NOT AVBL
BUTLER*        CLEAR     63  55  77 CALM      30.02S
PITTSBURGH INT PTCLDY    68  56  65 W3        30.00S
PITTSBURGH     CLEAR     71  51  49 W5        29.99S
INDIANA*       CLEAR     61  59  94 CALM      30.04R
LATROBE        NOT AVBL
WASHINGTON CO* NOT AVBL
$$

PAZ004>006-010>012-017>019-024>028-033>037-041-042-045-046-049>053-050500-
CENTRAL PENNSYLVANIA

CITY           SKY/WX    TMP DP  RH WIND       PRES   REMARKS
BRADFORD       MOCLDY    58  54  86 CALM      30.02R
DUBOIS         PTCLDY    63  53  70 CALM      30.01R
CLEARFIELD     PTCLDY    61  54  77 CALM      30.01R
JOHNSTOWN      MOCLDY    68  51  54 S3        30.04S
ALTOONA        CLEAR     61  57  87 W3        30.01S
STATE COLLEGE  PTCLDY    63  54  72 SW5       29.98S
WILLIAMSPORT   CLEAR     65  57  75 N3        29.93S
SELINSGROVE    PTCLDY    60  58  92 CALM      29.95R
FT INDIANTOWN  PTCLDY    62  57  84 N1        29.94R
CAPITAL CITY   CLEAR     68  57  68 W6        29.94R
HARRISBURG     MOCLDY    70  60  70 CALM      29.93R
YORK           CLOUDY    68  62  81 CALM      29.95R
$$

PAZ038>040-043-044-047-048-054-055-060>062-067>071-050500-
EASTERN PENNSYLVANIA

CITY           SKY/WX    TMP DP  RH WIND       PRES   REMARKS
SCRANTON       PTCLDY    68  56  65 E7        29.95R
MOUNT POCONO   CLEAR     58  55  90 CALM      29.99S
ALLENTOWN      PTCLDY    66  57  72 CALM      29.92S
QUAKERTOWN*    PTCLDY    63  57  82 CALM      29.94S
READING        PTCLDY    68  58  70 CALM      29.93R
LANCASTER      MOCLDY    68  59  73 CALM      29.94R
COATESVILLE    PTCLDY    72  55  56 NW6       29.95R
POTTSTOWN      PTCLDY    66  58  75 CALM      29.94S
BLUE BELL      PTCLDY    64  61  88 CALM      29.91S
DOYLESTOWN     PTCLDY    66  55  67 CALM      29.91F
WILLOW GROVE   NOT AVBL
NORTH PHILA    PTCLDY    77  49  37 NW5       29.92S
PHILADELPHIA   PTCLDY    81  52  36 CALM      29.91R
$$


USA.gov is the U.S. government's official web portal to all federal, state and local government web resources and services.